Location: Katowice
(50.2611°N, 19.0242°E)
Time: 18:52:18
(UTC+02:00)

Tiros 1 - Pass Details

Date: 26 August 2019
Orbit: 630 x 664 km, 48.4° (Epoch: 22 September)

Event Time Altitude Azimuth Distance (km) Brightness Sun altitude
Exits shadow 01:31:07 13° 90° (E) 1,805 9.5 -28.4°
Drops below altitude 10° 01:31:42 10° 89° (E) 2,025 9.8 -28.3°
Sets 01:34:03 0° 86° (E) 2,939 10.7 -28.3°
